TimePST,TemperatureF,Dew PointF,Humidity,Sea Level PressureIn,VisibilityMPH,Wind Direction,Wind SpeedMPH,Gust SpeedMPH,PrecipitationIn,Events,Conditions,WindDirDegrees,DateUTC
12:53 AM,51.1,41.0,68,30.10,10.0,WSW,6.9,-,N/A,,Overcast,250,2012-12-16 08:53:00
1:53 AM,50.0,43.0,77,30.11,10.0,NW,3.5,-,N/A,,Overcast,320,2012-12-16 09:53:00
2:53 AM,50.0,43.0,77,30.12,10.0,Calm,Calm,-,N/A,,Overcast,0,2012-12-16 10:53:00
3:53 AM,50.0,43.0,77,30.12,9.0,Calm,Calm,-,N/A,,Overcast,0,2012-12-16 11:53:00
4:53 AM,51.1,42.1,71,30.12,10.0,Calm,Calm,-,N/A,,Overcast,0,2012-12-16 12:53:00
5:53 AM,50.0,43.0,77,30.13,9.0,Calm,Calm,-,N/A,,Overcast,0,2012-12-16 13:53:00
6:53 AM,48.9,45.0,86,30.16,10.0,Calm,Calm,-,N/A,,Overcast,0,2012-12-16 14:53:00
7:53 AM,51.1,43.0,74,30.17,10.0,Calm,Calm,-,N/A,,Mostly Cloudy,0,2012-12-16 15:53:00
8:53 AM,52.0,44.1,74,30.17,10.0,East,5.8,-,N/A,,Mostly Cloudy,100,2012-12-16 16:53:00
9:53 AM,54.0,44.1,69,30.19,10.0,East,4.6,-,N/A,,Mostly Cloudy,100,2012-12-16 17:53:00
10:53 AM,55.0,44.1,67,30.19,10.0,East,5.8,-,N/A,,Overcast,90,2012-12-16 18:53:00
11:25 AM,55.4,44.6,67,30.19,10.0,Calm,Calm,-,N/A,,Overcast,0,2012-12-16 19:25:00
11:32 AM,55.4,44.6,67,30.18,10.0,Calm,Calm,-,N/A,,Overcast,0,2012-12-16 19:32:00
11:53 AM,54.0,43.0,66,30.18,10.0,Calm,Calm,-,N/A,,Overcast,0,2012-12-16 19:53:00
12:53 PM,55.0,45.0,69,30.15,7.0,Calm,Calm,-,N/A,,Overcast,0,2012-12-16 20:53:00
2:53 PM,55.0,46.9,74,30.13,8.0,Variable,4.6,-,N/A,,Overcast,0,2012-12-16 22:53:00
3:53 PM,53.1,48.0,83,30.13,6.0,Calm,Calm,-,N/A,,Haze,0,2012-12-16 23:53:00
4:53 PM,52.0,48.0,86,30.14,6.0,North,3.5,-,N/A,,Overcast,360,2012-12-17 00:53:00
5:53 PM,52.0,48.9,89,30.14,4.0,North,3.5,-,0.00,,Overcast,360,2012-12-17 01:53:00
6:53 PM,53.1,48.9,86,30.16,8.0,Calm,Calm,-,N/A,,Overcast,0,2012-12-17 02:53:00
7:53 PM,52.0,48.9,89,30.16,6.0,East,3.5,-,N/A,,Overcast,90,2012-12-17 03:53:00
8:53 PM,53.1,48.9,86,30.17,7.0,Calm,Calm,-,N/A,,Overcast,0,2012-12-17 04:53:00
9:53 PM,52.0,50.0,93,30.17,2.0,Calm,Calm,-,N/A,,Overcast,0,2012-12-17 05:53:00
10:06 PM,51.8,50.0,94,30.17,2.0,Calm,Calm,-,N/A,,Overcast,0,2012-12-17 06:06:00
10:14 PM,51.8,50.0,94,30.17,1.8,Calm,Calm,-,N/A,,Overcast,0,2012-12-17 06:14:00
10:49 PM,51.8,51.8,100,30.18,2.0,Calm,Calm,-,N/A,,Overcast,0,2012-12-17 06:49:00
10:53 PM,52.0,51.1,97,30.18,2.0,Calm,Calm,-,N/A,,Overcast,0,2012-12-17 06:53:00
11:07 PM,51.8,51.8,100,30.18,1.8,Calm,Calm,-,N/A,,Overcast,0,2012-12-17 07:07:00
11:44 PM,51.8,50.0,94,30.18,2.0,Calm,Calm,-,N/A,,Overcast,0,2012-12-17 07:44:00
11:53 PM,52.0,50.0,93,30.17,2.5,Calm,Calm,-,N/A,,Overcast,0,2012-12-17 07:53:00